Hourly Data Report for October 04, 2016

All times are specified in Local Standard Time (LST). Add 1 hour to adjust for Daylight Saving Time where and when it is observed.

PENTICTON A
BRITISH COLUMBIA

49°27'45.000" N
119°36'08.000" W
344.40 m
1126146
71889
YYF

Download Data

Hourly Data (October 2016)
Hourly Data Report for October 4, 2016
Temp Definition
°C
Dew Point Temp Definition
°C
Rel Hum Definition
%
Wind Dir Definition
10's deg

Wind Spd Definition
km/h
Visibility Definition
km
Stn Press Definition
kPa
Hmdx Definition


Wind Chill Definition


Weather Definition


TIME
00:00 Legend Double Dagger 5.4 2.1 79 35 3 24.1 96.85     LegendNANA
01:00 Legend Double Dagger 4.3 1.7 83 36 2 24.1 96.87     Mainly Clear
02:00 Legend Double Dagger 4.8 1.1 77 35 5 24.1 96.87     LegendNANA
03:00 Legend Double Dagger 6.0 2.3 77 2 8 24.1 96.90     LegendNANA
04:00 Legend Double Dagger 5.6 1.9 77 4 6 24.1 96.94     Mostly Cloudy
05:00 Legend Double Dagger 5.4 2.1 79 36 2 24.1 96.96     LegendNANA
06:00 Legend Double Dagger 5.3 2.7 83 1 6 24.1 96.98     LegendNANA
07:00 Legend Double Dagger 7.4 3.8 78 25 3 24.1 96.99     Cloudy
08:00 Legend Double Dagger 10.5 5.3 70 18 4 24.1 97.04     LegendNANA
09:00 Legend Double Dagger 11.1 6.3 72 36 2 24.1 97.05     LegendNANA
10:00 Legend Double Dagger 13.9 5.1 55 16 14 24.1 97.03     Cloudy
11:00 Legend Double Dagger 14.7 3.3 46 16 15 24.1 96.99     LegendNANA
12:00 Legend Double Dagger 16.6 5.0 46 17 19 24.1 96.95     LegendNANA
13:00 Legend Double Dagger 17.3 4.7 43 18 30 24.1 96.92     Mostly Cloudy
14:00 Legend Double Dagger 17.4 4.8 43 17 21 24.1 96.89     LegendNANA
15:00 Legend Double Dagger 17.4 4.8 43 19 25 24.1 96.86     LegendNANA
16:00 Legend Double Dagger 15.9 4.7 47 19 24 24.1 96.87     Mostly Cloudy
17:00 Legend Double Dagger 15.1 4.3 48 19 19 24.1 96.91     LegendNANA
18:00 Legend Double Dagger 13.9 4.8 54 16 3 24.1 96.97     LegendNANA
19:00 Legend Double Dagger 9.0 3.2 67 36 2 24.1 97.01     Mostly Cloudy
20:00 Legend Double Dagger 8.6 3.7 71 2 4 24.1 97.05     LegendNANA
21:00 Legend Double Dagger 7.5 3.0 73 1 3 24.1 97.08     LegendNANA
22:00 Legend Double Dagger 6.2 3.2 81 36 1 24.1 97.11     Mostly Cloudy
23:00 Legend Double Dagger 7.4 3.7 77 35 4 24.1 97.13     LegendNANA

Notes on Data Quality.

Legend

  • E = Estimated
  • M = Missing
  • NA = Not Available
  • ‡ = Partner data that is not subject to review by the National Climate Archives
Date modified: